This demonstration page uses our WeatherBlox Daily Observations layout. Learn more.

Left ArrowRight Arrow

44.31136, -96.79839

Hourly Observations for September 3, 2021

Temp ( °F °C ) Dew Point ( °F °C ) Humidity (%) Winds ( mph kmh ) Pressure ( in mb ) Visibility ( mi km ) Precip ( " mm )
12:56 am 00:56 Cloudy 61 16.1 60 15.6 97 97 SE 12 19 29.90 1013 10 16 0.00 0.00
1:56 am 01:56 Cloudy 61 16.1 60 15.6 97 97 SSE 13 20 29.89 1012 10 16 0.00 0.00
2:56 am 02:56 Cloudy 62 16.7 60 15.6 93 93 SE 5 7 29.89 1012 10 16 0.00 0.00
3:43 am 03:43 Cloudy with Rain 61 16 61 16 100 100 SSE 5 7 29.84 1011 3 4 0.00 0.00
3:56 am 03:56 Cloudy with Light Rain 61 16.1 60 15.6 97 97 SSE 3 6 29.90 1012 3 5 0.00 0.00
4:52 am 04:52 Cloudy with Light Rain 61 16 61 16 100 100 N 6 9 29.86 1011 2 3 0.06 1.52
4:56 am 04:56 Cloudy with Light Rain 61 16.1 61 16.1 100 100 N 5 7 29.92 1013 3 4 0.06 1.52
5:04 am 05:04 Cloudy with Light Rain 61 16 61 16 100 100 NNW 6 9 29.86 1011 4 6 0.00 0.00
5:25 am 05:25 Cloudy with Light Rain 61 16 61 16 100 100 N 6 9 29.87 1012 4 6 0.01 0.25
5:56 am 05:56 Cloudy with Mist and Fog 61 16.1 60 15.6 97 97 N 5 7 29.93 1013 6 10 0.01 0.25
6:16 am 06:16 Cloudy 61 16 61 16 100 100 N 5 7 29.87 1012 7 11 0.00 0.00
6:56 am 06:56 Cloudy with Mist and Fog 61 16.1 60 15.6 97 97 NNW 5 7 29.94 1014 6 10 0.00 0.00
7:11 am 07:11 Cloudy with Mist and Fog 61 16 61 16 100 100 N 6 9 29.89 1012 5 8 0.00 0.00
7:20 am 07:20 Cloudy with Mist and Fog 61 16 61 16 100 100 N 9 15 29.89 1012 5 8 0.00 0.00
7:56 am 07:56 Cloudy 61 16.1 60 15.6 97 97 N 6 9 29.96 1014 10 16 0.00 0.00
7:59 am 07:59 Cloudy 61 16 61 16 100 100 N 6 9 29.90 1013 10 16 0.00 0.00
8:13 am 08:13 Cloudy 61 16 61 16 100 100 N 7 11 29.90 1013 10 16 0.00 0.00
8:51 am 08:51 Cloudy 61 16 61 16 100 100 NNW 10 17 29.90 1013 10 16 0.00 0.00
8:56 am 08:56 Cloudy 61 16.1 60 15.6 97 97 NNW 12 19 29.96 1015 10 16 0.00 0.00
9:56 am 09:56 Cloudy 62 16.7 59 15 90 90 N 10 17 29.98 1015 10 16 0.00 0.00
10:26 am 10:26 Cloudy 63 17 59 15 88 88 N 10 17 29.93 1013 10 16 0.00 0.00
10:56 am 10:56 Cloudy 62 16.7 59 15 90 90 N 12 19 30.01 1016 10 16 0.00 0.00
11:56 am 11:56 Cloudy 63 17.2 59 15 87 87 N 13 20 30.01 1016 10 16 0.00 0.00
12:56 pm 12:56 Cloudy 63 17.2 59 15 87 87 NNW 13 20 30.02 1017 10 16 0.00 0.00
1:35 pm 13:35 Cloudy 64 18 59 15 83 83 N 13 20 29.95 1014 10 16 0.00 0.00
1:56 pm 13:56 Cloudy 65 18.3 59 15 81 81 NNW 13 20 30.00 1016 10 16 0.00 0.00
2:06 pm 14:06 Cloudy 64 18 59 15 83 83 NNE 12 19 29.94 1014 10 16 0.00 0.00
2:16 pm 14:16 Cloudy 64 18 59 15 83 83 N 9 15 29.93 1014 10 16 0.00 0.00
2:56 pm 14:56 Cloudy 66 18.9 59 15 78 78 N 10 17 29.99 1016 10 16 0.00 0.00
3:56 pm 15:56 Cloudy 66 18.9 59 15 78 78 N 10 17 29.99 1016 10 16 0.00 0.00
4:56 pm 16:56 Cloudy 66 18.9 59 15 78 78 N 10 17 30.01 1016 10 16 0.00 0.00
5:56 pm 17:56 Cloudy 66 18.9 60 15.6 81 81 NNE 9 15 30.00 1016 10 16 0.00 0.00
6:56 pm 18:56 Cloudy 65 18.3 60 15.6 84 84 NNE 7 11 30.00 1016 10 16 0.00 0.00
7:56 pm 19:56 Cloudy 65 18.3 60 15.6 84 84 N 3 6 30.00 1016 10 16 0.00 0.00
8:56 pm 20:56 Cloudy 64 17.8 59 15 84 84 N 5 7 30.02 1017 10 16 0.00 0.00
9:56 pm 21:56 Cloudy 62 16.7 59 15 90 90 NW 5 7 30.05 1018 10 16 0.00 0.00
10:54 pm 22:54 Partly Cloudy 61 16 57 14 88 88 Calm 29.99 1016 10 16 0.00 0.00
10:56 pm 22:56 Partly Cloudy 60 15.6 58 14.4 93 93 Calm 30.05 1018 10 16 0.00 0.00
11:56 pm 23:56 Clear 58 14.4 57 13.9 97 97 Calm 30.05 1018 10 16 0.00 0.00

Powered by AerisWeather